星链-30922 (STARLINK-30922 )

导读 | 星芒AI

STARLINK-30922 是 SpaceX Starlink 项目中的一颗低轨通信卫星,属于第三代 Starlink 卫星(也称 v1.5 或 Block V)。该卫星于 2023 年发射,旨在为全球提供高速互联网服务。它运行在约 550 公里的轨道高度,配备先进激光通信系统和多频段通信能力,支持更广覆盖和更低延迟。作为 Starlink 网络的一部分,STARLINK-30922 有助于提升偏远地区的互联网接入能力,并增强整体星座的冗余与性能。

基本信息
目录编号:
58414
目录名称:
STARLINK-30922
国际标识:
2023-180N
轨道中心:
EARTH
卫星名称:
星链-30922
卫星全名:
星链-30922 (STARLINK-30922 )
卫星状态:
在轨 (已飞行709 天)
发射日期:
2023-11-22 UTC
国别 :
美国 (US)
星等 :
--
轨道信息
数据来源 国际轨道数据 AOE轨道数据
星历时间 2025-10-30T23:40:03+0800
21小时前
查看轨道信息
2025-10-29T09:00:00+0800
2天前
查看轨道信息
半长轴 6937.208km 6937.203km
偏心率 0.0001229 0.0001298
轨道倾角 43.005° 43.006°
近地点辐角 274.870° 265.577°
升交点赤经 42.641° 51.394°
平近点角 85.200° 9.571°
近地点 558.22km 558.167km
远地点 559.926km 559.969km
周期 95.838分钟 95.838分钟
每日圈数 15.02539 15.025407
详细信息
固有亮度:
5
最大亮度:
0.3
卫星平台:
Starlink v2.0 mini
覆盖范围:
全球
运营商:
太空探索技术公司
运营商所在国:
美国
制造商(研发单位):
太空探索技术公司
制造商所在国:
美国
使用方式:
暂无
卫星简介
星链(Starlink)计划是由太空探索技术公司(SpaceX)提出的一个巨型低轨卫星互联网星座项目,计划在2019年至2024年间在太空搭建由约1.2万颗卫星组成的“星链”网络,其中1584颗将部署在地球上空550千米处的近地轨道,并从2020年开始工作。该卫星仍在工作。
2D轨道图
3D轨道图
轨道高度分析图
轨道倾角分析图
轨道综合分析图
查看轨道综合分析图